{"data":{"norad_id":54137,"intl_designator":"2022-138AA","name":"ONEWEB-0519","alt_names":[],"object_type":"PAYLOAD","status":"ACTIVE","operator":null,"country":"UK","launch_date":"2022-10-22","launch_site_code":"SRILR","launch_vehicle":null,"mission":null,"orbit_class":"UNKNOWN","rcs_meters":null,"size_class":null,"mass_kg":null,"dimensions":null,"purposes":["comms"],"wikipedia_slug":null,"has_3d_model":false,"image_url":null,"decayed_at":null,"tle_current":{"epoch":"2026-05-24T23:18:11.642112Z","epoch_age_seconds":77272,"freshness":"FRESH","line1":"1 54137U 22138AA  26144.97096808  .00000050  00000+0  91653-4 0  9992","line2":"2 54137  87.9162 309.5919 0001993  92.3587 267.7774 13.19722648173775","mean_motion":13.19722648,"eccentricity":0.0001993,"inclination_deg":87.9162,"raan_deg":309.5919,"arg_perigee_deg":92.3587,"mean_anomaly_deg":267.7774,"bstar":9.1653e-5,"rev_number":17377,"period_min":109.113835561,"perigee_km":1184.2720503225,"apogee_km":1187.2870274549,"semimajor_km":7563.9165388887,"source":"CELESTRAK","updated_at":"2026-05-25T13:38:22.589814Z"}}}